Location: Poughquag
(41.6090°N, 73.6820°W)
Time: 14:51:24
(UTC-04:00)

Vanguard 2 - Pass Details

Date: 01 June 2020
Orbit: 552 x 2938 km, 32.9° (Epoch: 06 July)

Event Time Altitude Azimuth Distance (km) Brightness Sun altitude
Rises 15:59:38 0° 193° (SSW) 6,753 12.6 46.5°
Reaches altitude 10° 16:07:10 10° 175° (S) 5,543 12.1 45.1°
Maximum altitude 16:15:07 16° 146° (SE) 4,682 11.5 43.7°
Drops below altitude 10° 16:21:56 10° 115° (ESE) 4,661 11.2 42.4°
Sets 16:27:10 0° 95° (E) 5,199 11.3 41.4°
